Regional Weather Roundup
Issued by NWS Newport/Morehead, NC

Current Version | Previous Version | Graphics & Text | Print | Product List | Glossary Off
Versions: 1 2 3 4 5 6 7 8 9 10 11 12 13 14 15 16 17 18 19 20 21 22 23 24 25 26 27 28 29 30 31 32 33 34 35 36 37 38 39 40 41 42 43 44 45 46 47 48 49 50

000
ASUS42 KMHX 031613
RWRMHX
WEATHER ROUNDUP FOR EASTERN NORTH CAROLINA
NATIONAL WEATHER SERVICE NEWPORT/MOREHEAD CITY NC
1100 AM EST SAT DEC 03 2016

NOTE: "FAIR" INDICATES FEW OR NO CLOUDS BELOW 12,000 FEET
WITH NO SIGNIFICANT WEATHER AND/OR OBSTRUCTIONS TO VISIBILITY

NCZ015>017-031-032-045>047-102-103-031700-
NORTH COAST

CITY           SKY/WX    TMP DP  RH WIND       PRES   REMARKS
EDENTON        SUNNY     50  32  50 NW12      30.26F
ELIZABETH CITY SUNNY     50  30  46 NW15      30.23F
KITTY HAWK     SUNNY     48  34  57 NW10G22   30.21S
MANTEO         SUNNY     49  32  52 N12G22    30.23S

$$

NCZ045>047-081-094-103-104-031700-
CENTRAL COAST

CITY           SKY/WX    TMP DP  RH WIND       PRES   REMARKS
FRISCO         SUNNY     50  32  50 VRB5G18   30.23F

$$

NCZ095-097-098-100-101-031700-
SOUTHERN COAST

CITY           SKY/WX    TMP DP  RH WIND       PRES   REMARKS
BEAUFORT       SUNNY     50  31  48 N13       30.27R
CEDAR ISLAND   NOT AVBL
JACKSONVILLE   SUNNY     50  29  44 N9        30.28S
PINEY ISLAND   SUNNY    N/A N/A N/A N17       30.25F
WILMINGTON     SUNNY     50  30  46 N10       30.29F


$$

NCZ011>013-027>030-043-044-078>080-089-090>093-098-031700-
COASTAL PLAIN

CITY           SKY/WX    TMP DP  RH WIND       PRES   REMARKS
AHOSKIE        SUNNY     47  29  49 N5        30.27F
CLINTON        SUNNY     49  31  49 N8        30.31S
ELIZABETHTOWN  SUNNY     48  31  52 N7        30.30F
GOLDSBORO      SUNNY     50  26  40 N8        30.27F
GREENVILLE     SUNNY     48  30  49 N9        30.29S
HAVELOCK       SUNNY     50  30  46 N13       30.28R
KENANSVILLE    SUNNY     48  28  46 N9        30.30R
KINSTON        SUNNY     50  28  43 N10       30.29S
NEW BERN       SUNNY     49  29  46 N12       30.28S
RICHLANDS      SUNNY     49  29  46 N8        30.29S
ROCKY MOUNT    SUNNY     48  28  46 N10       30.29F
WASHINGTON     SUNNY     49  29  46 N7        30.28F
WHITEVILLE     SUNNY     48  30  49 N6        30.30S

$$

AMZ130-135-150-152-154-156-158-170-250-252-270-ANZ085-086-088-633-658-670-031700-
MARINE OBSERVATIONS

STATION/POSITION TIME  TEMP    WIND        PRES    WAVE   SWELL
                       AIR SEA DIR/SP/G            HT/PER HT/PER
                 (UTC) (F)     (DEG/KT/KT) (MB)    (FT/S) (FT/S)
CHESAPEAKE LIGHT NOT AVBL
64 E VA BEACH    1550   49 60  330/ 21/ 25 1021.4    8/ 7
DUCK             1548   46 56  330/ 22/ 24 1022.5
2 E DUCK         NOT AVBL
OREGON INLET     1542   48 56  320/ 14/ 17 1023.1
13E OREGON INLT  1600      61                N/A     7/ 7   3/ 7
HATTERAS CG      1548   48 57  340/ 18/ 21 1023.5
DIAMOND BUOY     1550   65 74  350/ 19/ 25 1023.1    5/ 6   2/13
CAPE LOOKOUT     1600   48     340/  9/ 13 1024.4
BEAUFORT LAB     1548   47 56  350/  9/ 13 1023.8
30 SE NEW RVR IN 1508   50 71   20/ 14/ 25 1024.8
30 SE NEW RVR IN NOT AVBL
27 SE WRIGHTSVLE 1508   49 69   30/ 16/ 23 1024.8
5 SE WRIGHTSVLE  1508   46 63   20/ 19/ 31 1025.6
225 S CAPE HAT   1550   65 74  350/ 14/ 16 1020.6    5/ 6   2/ 8
41 SE CHARLESTON 1550   58 75   30/ 17/ 21 1024.0    4/ 5   2/ 9

$$



USA.gov is the U.S. government's official web portal to all federal, state and local government web resources and services.